Location: Jetmore Oil Field
(38.1181°N, 99.9337°W)
Time: 22:51:30
(UTC+00:00)

ISS - Pass Details

Date: 27 June 2021
Orbit: 419 x 421 km, 51.6° (Epoch: 30 July)

Event Time Altitude Azimuth Distance (km) Brightness Sun altitude
Exits shadow 10:00:54 23° 212° (SSW) 930 -2.6 -13.0°
Maximum altitude 10:02:46 62° 138° (SE) 476 -3.5 -12.7°
Drops below altitude 10° 10:06:06 10° 57° (ENE) 1,499 0.5 -12.3°
Sets 10:08:13 0° 54° (NE) 2,366 2.1 -12.0°
